Location: C�mpuri de-Sus
(45.9500°N, 22.5500°E)
Time: 02:54:46
(UTC+00:00)

Cosmos 839 Rocket - Pass Details

Date: 30 May 2022
Orbit: 968 x 2085 km, 65.9° (Epoch: 03 July)

Event Time Altitude Azimuth Distance (km) Brightness Sun altitude
Rises 23:07:37 0° 321° (NW) 3,715 7.6 -21.6°
Reaches altitude 10° 23:10:07 10° 315° (NW) 2,817 6.8 -21.5°
Maximum altitude 23:16:17 47° 244° (WSW) 1,474 4.6 -21.3°
Enters shadow 23:18:42 35° 199° (SSW) 1,815 4.8 -21.2°
